GW7344 Weather Reports


time (UTC)temp
C
wind
direction
speed
KPH
gust
KPH
rain 1hr
cm
rain 24hr
cm
rain mn
cm
humidity
%
barometer
mb
20260505123857 16 225 0.0 0.0 0.08 0.15 0.00 54 1008.1
20260505123352 16 360 1.6 6.4 0.08 0.15 0.00 53 1008.1
20260505122834 16 202 1.6 3.2 0.08 0.15 0.00 55 1008.1
20260505122326 16 315 1.6 6.4 0.08 0.15 0.00 55 1008.1
20260505121810 16 290 1.6 3.2 0.08 0.15 0.00 55 1008.1
20260505121251 15 315 0.0 8.0 0.08 0.15 0.00 55 1008.1
20260505120736 15 301 1.6 6.4 0.08 0.15 0.00 56 1008.1
20260505120229 15 321 3.2 6.4 0.03 0.10 0.00 56 1008.1
20260505115722 15 354 0.0 1.6 0.00 0.08 0.00 57 1008.1
20260505115204 15 360 0.0 3.2 0.00 0.08 0.00 57 1008.1
20260505114653 15 270 0.0 3.2 0.00 0.08 0.00 58 1008.1
20260505114135 15 357 0.0 1.6 0.00 0.08 0.00 58 1007.7
20260505113631 15 360 0.0 3.2 0.03 0.08 0.00 58 1008.1
20260505113111 15 135 0.0 1.6 0.03 0.08 0.00 58 1007.7
20260505112559 15 180 0.0 1.6 0.03 0.08 0.00 59 1007.7
20260505112049 14 314 0.0 3.2 0.03 0.08 0.00 59 1007.7
20260505111543 14 191 0.0 3.2 0.03 0.08 0.00 59 1007.7
20260505111030 14 270 0.0 1.6 0.03 0.08 0.00 60 1007.7
20260505110524 13 45 0.0 3.2 0.03 0.08 0.00 60 1007.4
20260505101917 13 315 0.0 3.2 0.00 0.05 0.00 62 1007.1
20260505101411 13 270 0.0 1.6 0.00 0.05 0.00 63 1007.1
20260505100908 13 270 0.0 1.6 0.00 0.05 0.00 63 1007.1
20260505100335 13 315 0.0 3.2 0.00 0.05 0.00 63 1007.1
20260505095825 13 360 0.0 6.4 0.00 0.05 0.00 63 1007.1
20260505095312 12 247 0.0 3.2 0.00 0.05 0.00 63 1007.1
20260505094757 12 319 1.6 1.6 0.00 0.05 0.00 64 1007.1
20260505094250 12 294 3.2 6.4 0.00 0.05 0.00 64 1007.1
20260505093749 12 135 0.0 0.0 0.00 0.05 0.00 65 1007.1
20260505093244 12 315 0.0 1.6 0.00 0.05 0.00 65 1007.1
20260505092736 12 270 0.0 1.6 0.00 0.05 0.00 65 1007.1
20260505092234 12 21 0.0 1.6 0.00 0.05 0.00 65 1006.7
20260505091727 12 270 0.0 1.6 0.00 0.05 0.00 65 1006.7
20260505091224 12 135 0.0 1.6 0.00 0.05 0.00 65 1006.7
20260505090706 12 180 0.0 1.6 0.00 0.05 0.00 65 1006.7
20260505090158 12 225 0.0 1.6 0.00 0.05 0.00 66 1006.7
20260505085954 12 225 0.0 1.6 0.03 0.05 0.00 65 1006.7
20260505085444 12 135 0.0 0.0 0.03 0.05 0.00 65 1006.7
20260505084939 12 270 0.0 1.6 0.03 0.05 0.00 65 1006.7
20260505084437 12 360 0.0 6.4 0.03 0.05 0.00 65 1006.7
20260505083933 12 13 1.6 1.6 0.03 0.05 0.00 66 1006.7
20260505083430 12 360 0.0 3.2 0.03 0.05 0.00 66 1006.7
20260505082915 12 337 0.0 1.6 0.03 0.05 0.00 66 1006.7
20260505082359 12 270 0.0 3.2 0.03 0.05 0.00 65 1006.4
20260505081852 12 360 0.0 1.6 0.00 0.03 0.00 66 1006.4
20260505081345 12 270 0.0 1.6 0.00 0.03 0.00 66 1006.4
20260505080827 12 360 0.0 0.0 0.00 0.03 0.00 66 1006.4
20260505080324 12 337 0.0 1.6 0.00 0.03 0.00 66 1006.4
20260505075814 12 315 0.0 6.4 0.00 0.03 0.00 67 1006.4
20260505075309 12 340 1.6 8.0 0.00 0.03 0.00 68 1006.4
20260505074808 12 315 0.0 1.6 0.00 0.03 0.00 68 1006.4
20260505074256 12 360 0.0 3.2 0.00 0.03 0.00 68 1006.4
20260505073750 12 270 0.0 0.0 0.00 0.03 0.00 68 1006.4
20260505073240 12 315 0.0 1.6 0.00 0.03 0.00 67 1006.4
20260505072733 12 315 0.0 0.0 0.00 0.03 0.00 68 1006.4
20260505072226 12 315 0.0 3.2 0.00 0.03 0.00 68 1006.4
20260505071725 12 337 0.0 0.0 0.00 0.03 0.00 69 1006.4
20260505071222 12 45 0.0 1.6 0.00 0.03 0.00 69 1006.4
20260505070711 12 45 0.0 0.0 0.00 0.03 0.00 69 1006.4
20260505070205 12 45 0.0 0.0 0.00 0.03 0.00 67 1006.4
20260505065702 12 45 0.0 1.6 0.00 0.03 0.00 66 1006.4
20260505065152 12 45 0.0 0.0 0.00 0.03 0.00 67 1006.0
20260505064642 12 45 0.0 0.0 0.00 0.03 0.00 66 1006.4
20260505064138 12 45 0.0 0.0 0.00 0.03 0.00 65 1006.0
20260505063631 12 45 0.0 0.0 0.00 0.03 0.00 65 1006.4
20260505063126 12 45 0.0 0.0 0.00 0.03 0.00 65 1006.0
20260505062623 12 45 0.0 0.0 0.00 0.03 0.00 64 1006.4
20260505062118 13 45 0.0 0.0 0.00 0.03 0.00 64 1006.0
20260505061610 13 45 0.0 0.0 0.00 0.03 0.00 65 1006.0
20260505061106 13 45 0.0 1.6 0.00 0.03 0.00 63 1006.0
20260505060603 13 45 0.0 0.0 0.00 0.03 0.00 63 1006.4
20260505060059 13 45 0.0 1.6 0.00 0.03 0.00 63 1006.4
20260505055558 13 360 0.0 0.0 0.00 0.03 0.00 63 1006.4
20260505055057 13 360 0.0 0.0 0.00 0.03 0.00 62 1006.4
20260505054548 13 360 0.0 0.0 0.00 0.03 0.00 62 1006.0
20260505054038 13 360 0.0 0.0 0.00 0.03 0.00 62 100.5
20260505053517 13 360 0.0 0.0 0.00 0.03 0.00 62 1006.0
20260505053010 13 360 0.0 1.6 0.00 0.03 0.00 61 1006.0
20260505052452 13 135 0.0 0.0 0.00 0.03 0.00 61 1006.0
20260505051948 14 135 0.0 0.0 0.00 0.03 0.00 60 1006.4
20260505051439 14 66 0.0 1.6 0.00 0.03 0.00 60 1006.0
20260505050931 14 66 0.0 1.6 0.00 0.03 0.00 60 1006.0
20260505050423 14 66 0.0 1.6 0.00 0.03 0.00 59 1006.0
20260505041727 15 360 0.0 0.0 0.00 0.03 0.00 55 1006.0
20260505041214 15 360 0.0 0.0 0.00 0.03 0.00 55 1006.0
20260505040712 15 360 0.0 0.0 0.00 0.03 0.00 54 1006.4
20260505040208 16 360 0.0 0.0 0.00 0.03 0.00 54 1006.4
20260505035703 16 360 0.0 0.0 0.00 0.03 0.00 53 1006.4
20260505035203 16 360 0.0 0.0 0.00 0.03 0.00 54 1006.4
20260505034658 16 360 0.0 1.6 0.00 0.03 0.00 53 1006.4
20260505034153 16 360 0.0 1.6 0.00 0.03 0.00 52 1006.4
20260505033647 16 315 0.0 1.6 0.00 0.03 0.00 51 1006.0
20260505033141 16 315 0.0 3.2 0.00 0.03 0.00 51 1006.4
20260505032634 16 360 0.0 1.6 0.00 0.03 0.00 51 1006.4
20260505032127 16 135 0.0 1.6 0.00 0.03 0.00 51 1006.4
20260505031621 17 315 0.0 1.6 0.00 0.03 0.00 51 1006.4
20260505031115 17 315 0.0 1.6 0.00 0.03 0.00 51 1006.4
20260505030603 17 337 0.0 0.0 0.00 0.03 0.00 50 1006.4
20260505025559 17 360 0.0 1.6 0.00 0.03 0.00 48 1006.4
20260505025057 17 360 0.0 1.6 0.00 0.03 0.00 48 1006.4
20260505024548 17 360 0.0 3.2 0.00 0.03 0.00 47 1006.0
20260505024035 17 360 0.0 0.0 0.00 0.03 0.00 47 1006.4
20260505023531 18 360 0.0 1.6 0.00 0.03 0.00 47 1006.4
20260505023023 18 45 0.0 1.6 0.00 0.03 0.00 46 1006.0
20260505022517 18 45 0.0 1.6 0.00 0.03 0.00 45 1006.0
20260505022015 18 315 0.0 3.2 0.00 0.03 0.00 45 1006.0
20260505021459 18 360 0.0 0.0 0.03 0.03 0.00 44 1006.0
20260505020940 18 270 0.0 1.6 0.03 0.03 0.00 44 1006.0
20260505020434 18 180 0.0 1.6 0.03 0.03 0.00 43 1006.0
20260505015924 19 32 0.0 6.4 0.03 0.03 0.00 43 1006.0
20260505015407 19 360 0.0 6.4 0.03 0.03 0.00 42 1006.0
20260505014900 19 287 1.6 6.4 0.03 0.03 0.00 42 1006.0
20260505014350 19 360 0.0 8.0 0.03 0.03 0.00 41 1006.0
20260505013839 19 309 1.6 8.0 0.03 0.03 0.00 40 1005.7
20260505013321 20 45 0.0 3.2 0.03 0.03 0.00 40 1005.7
20260505012817 20 316 1.6 3.2 0.03 0.03 0.00 40 1005.7
20260505012313 20 349 0.0 3.2 0.03 0.03 0.00 39 1005.7
20260505011757 20 360 0.0 6.4 0.00 0.00 0.00 39 1005.7
20260505011255 20 360 0.0 6.4 0.00 0.00 0.00 39 1005.7
20260505010741 20 20 1.6 3.2 0.00 0.00 0.00 38 1005.7
20260505010240 20 358 0.0 3.2 0.00 0.00 0.00 38 1005.4
20260505005721 20 341 4.8 8.0 0.00 0.00 0.00 37 1005.4
20260505005204 21 329 3.2 11.3 0.00 0.00 0.00 37 1005.4
20260505004702 21 328 1.6 8.0 0.00 0.00 0.00 37 1005.4
20260505004159 21 334 4.8 6.4 0.00 0.00 0.00 37 1005.4
20260505003637 21 346 3.2 3.2 0.00 0.00 0.00 37 1005.4
20260505003050 21 335 1.6 3.2 0.00 0.00 0.00 36 1005.4
20260505002536 21 311 4.8 8.0 0.00 0.00 0.00 36 1005.4
20260505002031 21 328 6.4 8.0 0.00 0.00 0.00 36 100.5
20260505001457 21 352 0.0 1.6 0.00 0.00 0.00 35 1005.4
20260505000956 21 345 3.2 6.4 0.00 0.00 0.00 35 1005.0
20260505000449 21 297 0.0 11.3 0.00 0.00 0.00 35 1005.0
20260504235940 21 336 3.2 11.3 0.08 0.51 0.00 35 1005.4
20260504235428 21 315 1.6 3.2 0.05 0.48 0.00 34 1005.0
20260504234915 21 341 1.6 11.3 0.08 0.48 0.00 34 1005.0
20260504234357 21 1 1.6 8.0 0.08 0.48 0.00 35 1005.4
20260504233855 21 319 1.6 8.0 0.08 0.48 0.00 34 1005.0
20260504233346 22 293 0.0 6.4 0.08 0.48 0.00 34 1005.0
20260504232838 22 310 1.6 1.6 0.05 0.46 0.00 33 1005.0
20260504232330 22 315 3.2 25.7 0.05 0.46 0.00 33 1004.7
20260504231829 22 108 0.0 8.0 0.05 0.46 0.00 33 1005.0
20260504231310 22 339 4.8 6.4 0.05 0.46 0.00 32 1004.7
20260504230751 22 342 4.8 6.4 0.05 0.46 0.00 32 1004.7
20260504230148 22 309 3.2 11.3 0.03 0.43 0.00 33 1004.7
20260504225634 22 323 3.2 11.3 0.03 0.43 0.00 32 1004.7
20260504225131 22 343 4.8 8.0 0.00 0.41 0.00 32 1004.7
20260504224622 22 315 1.6 6.4 0.00 0.41 0.00 32 1004.7
20260504224121 22 317 11.3 12.9 0.00 0.41 0.00 31 1004.7
20260504223612 22 296 3.2 12.9 0.00 0.41 0.00 32 1004.7
20260504223100 23 292 1.6 11.3 0.00 0.41 0.00 31 1004.7
20260504222548 23 304 6.4 12.9 0.00 0.41 0.00 31 1004.7
20260504222041 23 315 3.2 11.3 0.00 0.41 0.00 31 1004.7
20260504221729 23 121 3.2 11.3 0.00 0.41 0.00 30 1004.7
20260504221111 23 337 8.0 11.3 0.00 0.41 0.00 30 1004.7
20260504220550 23 353 4.8 11.3 0.00 0.41 0.00 30 1004.7
20260504220043 23 354 1.6 12.9 0.00 0.41 0.00 29 1004.7
20260504215537 23 352 3.2 11.3 0.00 0.41 0.00 30 1004.7
20260504215021 23 309 4.8 12.9 0.03 0.41 0.00 29 1004.7
20260504214509 23 318 4.8 6.4 0.03 0.41 0.00 29 1004.7
20260504214002 23 329 3.2 16.1 0.05 0.41 0.00 29 1004.7
20260504213501 23 167 1.6 16.1 0.05 0.41 0.00 29 1004.7
20260504212955 23 343 9.7 12.9 0.05 0.41 0.00 28 1004.7
20260504212451 23 329 9.7 16.1 0.05 0.41 0.00 28 1004.7
20260504211949 23 332 6.4 8.0 0.03 0.38 0.00 28 1004.7
20260504211420 23 269 1.6 6.4 0.03 0.38 0.00 28 1004.7
20260504210916 23 333 4.8 8.0 0.03 0.38 0.00 28 1005.0
20260504210405 23 134 0.0 8.0 0.03 0.38 0.00 28 1005.0
20260504205904 24 329 3.2 12.9 0.03 0.38 0.00 27 1004.7
20260504205403 24 337 8.0 11.3 0.03 0.38 0.00 27 1004.7
20260504204853 25 338 3.2 6.4 0.03 0.38 0.00 27 1004.7
20260504204350 25 327 3.2 22.5 0.03 0.38 0.00 27 1004.7
20260504203843 25 147 0.0 3.2 0.00 0.36 0.00 26 1004.7
20260504203328 25 315 9.7 20.9 0.00 0.36 0.00 25 1004.7
20260504202820 25 345 6.4 12.9 0.00 0.36 0.00 26 1004.7
20260504202318 25 333 6.4 8.0 0.00 0.36 0.00 25 1004.7
20260504201809 25 356 6.4 11.3 0.00 0.36 0.00 26 1004.7
20260504201308 25 329 6.4 16.1 0.00 0.36 0.00 25 1005.0
20260504200756 26 301 3.2 11.3 0.00 0.36 0.00 26 1005.0
20260504200254 26 225 0.0 3.2 0.00 0.36 0.00 26 1004.7
20260504195751 26 194 1.6 3.2 0.00 0.36 0.00 26 1005.0
20260504195233 26 332 3.2 12.9 0.00 0.36 0.00 26 1005.4
20260504194725 26 326 3.2 17.7 0.00 0.36 0.00 24 1005.4
20260504194223 26 241 1.6 3.2 0.00 0.36 0.00 26 1005.4
20260504193721 26 322 1.6 8.0 0.00 0.36 0.00 25 1005.7
20260504193206 26 344 3.2 6.4 0.00 0.36 0.00 25 1005.7
20260504192703 26 334 11.3 16.1 0.00 0.36 0.00 24 1005.7
20260504192200 26 234 1.6 12.9 0.00 0.36 0.00 24 1005.7
20260504191646 26 332 3.2 3.2 0.00 0.36 0.00 24 1005.7
20260504191139 26 331 4.8 11.3 0.00 0.36 0.00 27 1005.7
20260504190615 27 327 9.7 16.1 0.00 0.36 0.00 23 1006.0
20260504190106 27 321 1.6 3.2 0.00 0.36 0.00 25 1006.0
20260504185602 26 231 0.0 16.1 0.00 0.36 0.00 25 1006.0
20260504185055 27 328 8.0 12.9 0.00 0.36 0.00 25 1006.0
20260504184548 27 326 3.2 17.7 0.00 0.36 0.00 23 1006.4
20260504184036 27 31 3.2 12.9 0.00 0.36 0.00 24 1006.4
20260504183514 27 321 1.6 3.2 0.00 0.36 0.00 26 1006.4
20260504182959 27 311 1.6 12.9 0.00 0.36 0.00 24 1006.4
20260504182441 27 318 6.4 11.3 0.00 0.36 0.00 22 1006.4
20260504181929 27 298 6.4 8.0 0.00 0.36 0.00 23 1006.7
20260504181421 27 231 0.0 3.2 0.00 0.36 0.00 24 1006.7
20260504180918 27 135 0.0 6.4 0.00 0.36 0.00 24 1006.7
20260504180412 27 315 0.0 8.0 0.00 0.36 0.00 25 1007.1
20260504175858 27 337 11.3 17.7 0.00 0.36 0.00 24 1007.1
20260504175357 27 340 4.8 20.9 0.00 0.36 0.00 24 1007.4
20260504174836 27 350 4.8 11.3 0.00 0.36 0.00 24 1007.4
20260504174331 27 318 0.0 3.2 0.00 0.36 0.00 23 1007.4
20260504173820 27 315 4.8 6.4 0.00 0.36 0.00 24 1007.4
20260504173311 26 172 0.0 6.4 0.00 0.36 0.00 25 1007.4
20260504172806 26 356 3.2 16.1 0.00 0.36 0.00 23 1007.4
20260504172303 26 332 4.8 8.0 0.00 0.36 0.00 26 1007.7
20260504171734 26 136 1.6 12.9 0.00 0.36 0.00 26 1007.7
20260504171215 26 285 0.0 17.7 0.00 0.36 0.00 26 1007.7
20260504170702 26 330 1.6 12.9 0.00 0.36 0.00 26 1007.7
20260504170154 26 21 1.6 11.3 0.00 0.36 0.00 28 1007.7
20260504151130 22 280 1.6 11.3 0.03 0.36 0.00 31 1009.4
20260504150618 22 326 4.8 8.0 0.03 0.36 0.00 30 1009.4
20260504150107 22 350 4.8 11.3 0.03 0.36 0.00 31 1009.4
20260504140951 18 332 4.8 8.0 0.00 0.33 0.00 39 1009.4
20260504140442 18 184 0.0 1.6 0.00 0.33 0.00 39 1009.4
20260504130746 12 32 1.6 6.4 0.03 0.33 0.00 51 1009.8
20260504130237 12 329 1.6 6.4 0.03 0.33 0.00 51 1010.1